Regional Weather Roundup
Issued by NWS

Home | Current Version | Previous Version | Text Only | Print | Product List | Glossary On
Versions: 1 2 3 4 5 6 7 8 9 10 11 12 13 14 15 16 17 18 19 20 21 22 23 24 25 26 27 28 29 30 31 32 33 34 35 36 37 38 39 40 41 42 43 44 45 46 47 48 49 50
000
ASUS43 KTOP 010559
RWRKS

WEATHER ROUNDUP FOR KANSAS
NATIONAL WEATHER SERVICE GOODLAND KS
100 AM CDT WED OCT 01 2014

NOTE:  "FAIR" INDICATES FEW OR NO CLOUDS BELOW 12,000 FEET WITH NO
SIGNIFICANT WEATHER AND/OR OBSTRUCTIONS TO VISIBILITY.

KSZ001>006-013>018-027>032-041>047-010700-
NORTHWEST KANSAS

CITY           SKY/WX    TMP DP  RH WIND       PRES   REMARKS
GOODLAND       MOCLDY    54  47  77 W7        29.80S
6HR MIN TEMP:  53; 6HR MAX TEMP:  70;

HAYS           CLEAR     61  55  82 NW5       29.70S
HILL CITY      CLOUDY    65  63  93 NE3       29.73S FOG
6HR MIN TEMP:  63; 6HR MAX TEMP:  77;

RUSSELL        CLEAR     63  61  93 S5        29.68S
6HR MIN TEMP:  63; 6HR MAX TEMP:  73;

$$

KSZ061>065-074>080-084>089-010700-
SOUTHWEST KANSAS

CITY           SKY/WX    TMP DP  RH WIND       PRES   REMARKS
DODGE CITY     CLEAR     58  47  66 W3        29.75R
6HR MIN TEMP:  58; 6HR MAX TEMP:  79;

GARDEN CITY    PTCLDY    57  46  66 MISG      29.74F
6HR MIN TEMP:  55; 6HR MAX TEMP:  75;

GREAT BEND     PTCLDY    63  57  82 SW8       29.71S
LIBERAL        PTCLDY    63  43  48 E6        29.76S
$$

KSZ066>073-081>083-090>101-010700-
SOUTHEAST KANSAS

CITY           SKY/WX    TMP DP  RH WIND       PRES   REMARKS
CHANUTE        MOCLDY    71  62  73 SE12      29.79S
6HR MIN TEMP:  71; 6HR MAX TEMP:  77;

COFFEYVILLE    LGT RAIN  70  63  78 S6        29.78F
6HR MIN TEMP:  70; 6HR MAX TEMP:  78; 6HR PCP: TRACE;

HUTCHINSON     LGT RAIN  73  63  70 S8        29.73R
6HR MIN TEMP:  72; 6HR MAX TEMP:  82; 6HR PCP: TRACE;

MEDICINE LODGE   N/A     74  58  57 SW12      29.72R
NEWTON         CLOUDY    72  59  64 S16G24    29.74R
PARSONS        CLOUDY    71  62  73 S8        29.79F
6HR MIN TEMP:  71; 6HR MAX TEMP:  78;

WICHITA INTL   CLOUDY    74  63  68 S21G28    29.70S
6HR MIN TEMP:  74; 6HR MAX TEMP:  83;

WICHITA JABRA  CLOUDY    72  63  73 S20G26    29.71S
6HR MIN TEMP:  72; 6HR MAX TEMP:  80;

WINFIELD       MOCLDY    72  64  76 SE16      29.74S
6HR MIN TEMP:  72; 6HR MAX TEMP:  80;

$$

KSZ007>012-019>026-033>040-048>060-102>105-010700-
NORTHEAST KANSAS

CITY           SKY/WX    TMP DP  RH WIND       PRES   REMARKS
CONCORDIA      MOCLDY    65  64  97 SE6       29.69F
6HR MIN TEMP:  65; 6HR MAX TEMP:  67; 6HR PCP:  0.12;

EMPORIA        MOCLDY    70  63  78 S20       29.74F
6HR MIN TEMP:  70; 6HR MAX TEMP:  77;

LAWRENCE       CLOUDY    69  62  78 SE9       29.76F
6HR MIN TEMP:  67; 6HR MAX TEMP:  77; 6HR PCP:  0.01;

MANHATTAN      RAIN      69  66  90 S8        29.74R FOG
6HR MIN TEMP:  69; 6HR MAX TEMP:  80; 6HR PCP:  0.42;

OLATHE IND     LGT RAIN  68  62  81 S13       29.78F
6HR MIN TEMP:  68; 6HR MAX TEMP:  76; 6HR PCP: TRACE;

OLATHE EXE     LGT RAIN  68  61  78 S14       29.78F
6HR MIN TEMP:  67; 6HR MAX TEMP:  76; 6HR PCP:  0.01;

SALINA         TSTM      68  65  90 SE13      29.70F
6HR MIN TEMP:  68; 6HR MAX TEMP:  78; 6HR PCP:  0.59;

TOPEKA BILLARD CLOUDY    75  62  64 S18G26    29.73F
6HR MIN TEMP:  74; 6HR MAX TEMP:  80;

TOPEKA FORBES  CLOUDY    73  61  65 S16G26    29.74F
6HR MIN TEMP:  73; 6HR MAX TEMP:  79; 6HR PCP: TRACE;

$$


USA.gov is the U.S. government's official web portal to all federal, state and local government web resources and services.